NOAA 16 DEB, 41061

Orbit data source: Space-Track

NOAA 16 DEB, 41061 is space debris in SSO originally from a launch on Thu, 21 Sep 2000 UTC launched from the Air Force Western Test Range (AFWTR). Debris objects in space refer to the collection of defunct objects orbiting the Earth. Examples of debris include non-operational satellites, rocket bodies, and fragments generated from explosions, collisions, or faulty payload assembly.

Loading next visibility...
Identifier
41061, 2000-055U
Orbit
SSO
Country
Flag of USUS
Related business
Manufacturer
Unknown
Mission
Spacecraft
Bus & Motor
Unknown
Mass
Unknown
Launch date (UTC)
2000-09-21 (26 years ago)
Launch vehicle
Unknown
Launch site
Air Force Western Test Range (AFWTR)
Object type
Payload
Rocket body
Debris
Shape & HBR
Unknown shape, 0.1 m
Radar Cross Section
Small (<0.1 m²)

Expand to show TLE details & history
Last TLE update: 5 hours ago

TLE from 5 hours ago
0 NOAA 16 DEB
1 41061U 00055U   26119.95825188  .00001340  00000-0  60726-3 0  9999
2 41061  98.6832 205.9310 0019961  56.5940 303.7144 14.23501883539458
Epoch: 2026-04-29T22:59Z
TLE epoch observation values (Epoch: 2026-04-29T22:59:52.962Z)
Latitude
-0.00008°
Longitude
3.04859°
Altitude
808.504 km
Speed
7.453 km/s
True Right ascension
13h 43m 43s
True Declination
0° 00' 00"
Sunlit
Object was in full shadow at epoch
Visualization orbit readout
Latitude
Unknown
Longitude
Unknown
Altitude
Unknown
Speed
Unknown
Apparent Right ascension
Unknown
Apparent Declination
Unknown
Sunlit
N/A
Visualization observer readout
Local Sidereal Time
11:19:34
Azimuth
Unknown
Elevation
Unknown
Doppler factor
Unknown
Orbital elements
Apogee altitude
825.036 km
Perigee altitude
796.337 km
Semi-major axis
7,188.824 km
Eccentricity
0.002
Inclination
98.6832°
RAAN
205.931°
Arg. of periapsis
56.594°
True anomaly
303.52387°
Mean anomaly
303.7144°
Eccentric anomaly
303.61916°
Mean motion
3.56087 °/min
Orbital period
101.1 mins
BSTAR
0.00060726
Loading maneuver chart data...
Computing Atmospheric mass density...
Loading historical data...
Loading historical data...
Loading historical data...
Loading historical data...
Loading historical data...
Loading historical data...
Loading historical data...

Documentation

Showing up to 5 results
|